Vorticity
nan nan nan nan nan nan nan nan nan nan nan nan nan nan nan nan nan nan nan nan nan nan nan nan nan nan nan nan nan nan nan nan nan nan nan nan nan nan nan nan nan nan nan
nan 6 10 14 9 8 8 8 7 7 6 6 5 4 5 5 5 5 4 4 4 5 6 5 5 4 6 6 4 4 3 3 3 3 3 1 10 11 5 4 8 5 nan
nan 5 2 9 13 9 8 8 7 7 7 6 6 5 5 4 4 5 5 4 4 4 6 7 7 5 6 6 4 3 3 3 3 2 6 7 -0 6 4 3 4 5 nan
nan 5 2 6 10 12 10 8 8 9 8 7 7 8 7 5 4 4 5 5 4 4 3 4 8 10 8 6 4 4 3 4 3 4 5 6 4 8 3 3 4 4 nan
nan 3 3 5 6 8 9 10 9 9 9 8 7 7 8 8 6 6 6 6 4 5 5 5 5 11 12 7 5 3 4 4 4 4 5 5 8 9 5 5 6 5 nan
nan 3 4 5 6 5 6 6 7 8 9 9 8 8 8 8 8 8 7 7 7 6 6 6 5 11 12 6 5 4 5 6 4 3 5 6 7 6 5 4 5 6 nan
nan 5 2 3 5 5 5 5 6 6 7 8 8 8 9 8 8 8 7 7 7 6 6 6 6 10 12 7 4 4 6 5 3 5 6 6 11 5 3 4 5 4 nan
nan 5 6 4 2 3 4 5 5 5 6 6 7 7 7 7 7 7 7 7 7 7 7 7 6 6 8 8 6 6 7 6 5 5 5 9 13 7 3 4 5 4 nan
nan 6 6 3 8 8 -1 3 3 5 5 5 5 5 6 7 7 7 7 9 8 7 7 7 8 7 7 8 8 7 7 5 3 5 9 11 13 4 3 5 5 4 nan
nan 5 5 6 6 6 4 5 4 5 3 4 6 6 5 11 10 7 10 8 7 6 6 7 7 7 9 9 7 8 8 7 6 6 8 12 11 4 4 4 6 6 nan
nan 5 6 6 6 8 9 4 11 8 8 8 5 6 7 9 9 10 4 4 5 8 8 6 6 7 9 10 12 9 7 6 8 7 10 13 6 2 4 5 5 7 nan
nan 5 6 6 6 8 8 6 10 8 10 10 8 7 10 8 9 10 7 8 6 7 8 11 10 9 7 9 15 12 5 8 10 8 8 12 8 4 4 5 6 6 nan
nan 5 6 7 7 8 9 9 8 7 7 6 6 8 10 10 9 8 11 9 12 8 5 10 12 10 6 5 7 10 5 8 11 11 10 11 8 5 6 6 5 6 nan
nan 6 6 7 7 8 8 8 7 8 7 7 6 8 9 9 8 8 8 8 9 6 7 9 9 7 5 6 10 7 5 6 6 7 8 12 11 7 6 6 5 5 nan
nan 6 6 7 8 8 9 8 8 8 7 7 8 8 9 9 8 9 8 8 9 8 9 8 7 8 9 11 8 6 8 8 5 6 9 13 11 9 7 6 6 5 nan
nan 5 6 7 8 8 8 8 9 8 8 8 7 6 8 10 9 9 9 8 9 8 8 9 9 9 9 8 8 12 11 7 8 7 8 13 15 11 9 9 7 6 nan
nan 5 6 7 7 8 8 9 9 8 8 7 7 6 9 9 8 9 9 10 7 8 9 10 9 9 9 8 9 10 11 11 11 8 6 7 15 17 11 9 12 11 nan
nan 6 6 7 7 8 9 8 8 9 8 7 9 8 6 7 10 11 8 7 9 10 10 9 11 10 9 10 11 9 9 10 9 9 8 11 10 12 21 21 14 13 nan
nan 6 6 7 8 8 9 9 8 10 7 9 8 7 8 9 9 9 9 6 10 10 9 9 8 10 11 10 10 9 9 9 10 12 10 10 14 12 7 12 21 23 nan
nan 5 7 7 8 9 11 10 8 4 8 8 7 7 8 8 8 11 9 8 9 9 8 8 9 10 8 8 10 13 11 11 12 10 13 9 8 8 9 8 6 5 nan
nan 5 6 7 8 10 9 10 10 6 6 7 7 7 8 8 9 10 9 9 9 9 8 10 10 10 9 11 11 10 12 9 11 12 8 6 7 7 7 8 9 10 nan
nan 7 6 7 8 9 9 9 9 9 7 8 8 6 7 8 10 9 9 9 9 8 7 8 10 12 9 9 13 10 12 9 4 9 7 8 8 7 6 7 9 11 nan
nan 7 7 7 8 8 9 11 10 9 8 7 6 6 6 7 8 8 9 9 8 9 7 7 7 10 10 10 10 11 9 6 8 9 6 4 6 5 6 7 10 10 nan
nan 7 8 8 7 6 8 9 8 9 11 9 7 7 6 6 7 8 8 8 10 8 7 9 9 9 9 9 7 9 13 7 8 5 6 5 3 6 8 10 12 5 nan
nan 7 8 8 7 7 7 8 9 9 8 7 7 7 7 6 5 7 8 8 9 9 8 8 8 10 10 9 9 9 10 13 10 6 6 6 5 9 8 8 7 6 nan
nan nan nan nan nan nan nan nan nan nan nan nan nan nan nan nan nan nan nan nan nan nan nan nan nan nan nan nan nan nan nan nan nan nan nan nan nan nan nan nan nan nan nan
CAPE
204 594 1727 951 919 1038 1033 1049 1196 1293 1367 1301 1026 740 651 575 480 431 176 333 336 264 294 7 155 241 324 596 389 260 866 650 563 482 403 426 244 154 580 314 341 113 35
110 616 1309 1283 976 960 1102 1092 1238 1264 1223 1305 1311 908 544 498 420 236 216 395 425 633 762 245 87 206 231 653 459 750 517 307 270 167 100 264 433 410 443 312 449 162 24
43 89 442 1106 1147 1086 1187 1192 1144 1087 1169 1203 1161 1210 900 550 423 402 297 300 463 635 807 1010 657 350 541 878 747 528 340 96 0 0 1 192 406 309 271 261 31 2 0
0 0 0 35 702 1041 1057 1121 1152 1100 1112 1129 1079 1095 1130 1043 859 760 535 418 451 556 851 1091 1008 991 815 982 509 227 84 4 0 0 0 0 0 1 0 5 5 0 0
0 0 0 0 0 94 465 998 1064 1155 1119 1095 1062 1045 982 1050 1102 1187 1095 1044 928 809 685 414 644 1103 1090 978 674 286 41 1 0 0 0 0 0 0 0 0 0 0 0
0 0 0 0 0 0 0 0 134 709 996 991 926 902 904 917 1064 861 940 1065 1102 1095 976 636 412 1166 1270 905 872 661 283 37 84 0 0 0 0 0 0 0 0 0 0
0 0 0 0 0 0 0 0 0 0 2 315 762 889 936 871 739 751 850 860 899 894 1030 929 531 1008 1119 921 806 715 748 478 2 0 0 0 0 0 0 0 0 0 0
0 0 0 0 0 0 0 0 0 0 0 0 0 93 280 516 721 806 824 824 727 719 839 804 760 861 874 830 765 759 664 458 27 0 0 0 1 0 0 34 43 0 0
0 0 0 0 0 0 0 0 0 0 0 0 0 0 0 0 178 504 659 694 678 742 816 879 753 809 924 936 1017 933 567 377 130 7 1 0 11 0 0 9 224 40 0
0 0 0 0 0 0 0 0 0 0 0 0 0 0 0 0 18 368 535 338 273 381 528 642 663 835 1103 1188 1066 802 459 313 308 299 104 0 85 0 0 14 133 482 97
0 0 0 0 0 0 0 0 0 0 0 0 0 0 0 0 0 3 0 0 2 28 74 178 343 645 533 512 545 600 347 339 380 511 439 18 0 0 0 0 125 288 475
0 0 0 0 0 0 0 0 0 0 0 0 0 0 0 0 0 0 0 0 0 19 55 209 438 503 204 116 147 140 415 446 188 377 382 159 9 0 0 0 96 266 455
0 0 0 0 0 0 0 0 0 0 0 0 0 0 0 0 0 0 0 0 0 0 0 57 198 412 386 381 327 511 465 413 345 514 370 150 61 7 0 0 159 472 582
0 0 0 0 0 0 0 0 0 0 0 0 0 0 0 0 0 0 0 0 0 0 0 3 12 13 1 107 355 326 343 450 365 547 411 211 317 238 161 63 97 316 429
0 0 0 0 0 0 0 0 0 0 0 0 0 0 0 0 0 0 0 0 0 0 0 0 0 1 5 13 20 55 302 449 500 537 543 423 86 499 481 369 293 321 381
0 0 0 0 0 0 0 0 0 0 0 0 0 3 1 0 1 0 0 0 0 0 0 0 0 1 0 7 23 62 61 198 312 393 493 541 147 209 540 691 639 646 700
0 0 0 0 0 0 0 0 0 2 1 1 0 0 4 0 1 2 2 0 0 0 0 1 1 6 8 5 1 48 206 181 242 381 389 482 648 132 129 450 690 756 683
0 0 0 0 0 0 0 0 1 4 3 2 1 0 1 2 2 3 4 6 7 9 6 6 8 11 24 18 10 9 80 185 267 201 299 362 395 480 240 96 253 485 267
0 0 0 0 0 0 0 0 1 4 1 3 2 2 3 4 3 8 2 6 2 18 13 10 12 23 36 36 48 44 33 127 223 383 490 281 228 146 38 3 12 97 62
0 0 0 0 0 0 0 0 2 2 1 1 5 0 0 0 1 3 1 2 1 7 3 2 2 12 22 14 0 30 81 96 325 191 116 136 0 0 0 0 0 0 8
0 0 0 0 0 0 0 0 2 2 0 0 3 0 0 0 0 0 0 0 0 1 1 0 3 6 9 4 12 2 29 42 92 66 65 0 1 3 0 0 0 0 0
0 0 0 0 0 0 0 0 1 2 1 3 0 0 0 0 0 0 0 0 0 0 0 0 0 0 3 10 9 3 30 59 1 49 0 1 0 0 0 0 0 0 0
0 0 0 0 0 0 0 0 3 3 2 0 0 0 0 0 0 0 0 0 0 0 0 0 0 0 0 0 10 9 6 8 0 57 31 3 0 0 0 0 0 0 0
0 0 0 0 0 0 0 0 0 1 0 0 0 0 0 0 0 0 0 0 0 0 0 0 0 0 0 0 0 0 1 17 23 3 4 1 0 0 0 0 4 0 0
0 0 0 0 0 0 0 0 0 0 0 0 0 0 0 0 0 0 0 0 0 0 0 0 0 0 0 0 0 0 0 0 0 0 0 0 0 0 0 0 0 0 0
0 0 0 0 0 0 0 0 0 0 0 0 0 0 0 0 0 0 0 0 0 0 0 0 0 0 0 0 0 0 0 0 0 0 0 0 0 0 0 0 0 0 0